#timestamp,LO_Frequency,Hit,StdDev 
1561561215.7,286046997.1,N
1561561235.6,286046997.3,N
1561561255.4,286046997.0,N
1561561275.3,286046996.6,N
1561561295.1,286046996.5,N
1561561296.0,286046996.5,N
1561561315.8,286046996.6,N
1561561335.7,286046996.6,N
1561561355.5,286046998.9,N
1561561375.4,286046996.9,N
1561561395.2,286046996.9,N
1561561415.0,286046996.5,N
1561561415.9,286046996.5,N
1561561435.8,286046997.0,N
1561561455.6,286046999.3,N
1561561475.5,286046999.1,N
1561561495.3,286046999.6,N
1561561515.2,286046996.7,N
1561561535.9,286046999.1,N
1561561555.7,286046996.5,N
1561561575.6,286046996.7,N
1561561595.4,286046996.8,N
1561561615.3,286046996.9,N
1561561635.1,286046996.7,N
1561561636.0,286046996.7,Y
1561561655.8,286047000.3,P
1561561675.7,286047002.8,N
1561561695.5,286046999.9,N
1561561715.4,286047002.2,N
1561561735.2,286047002.8,N
1561561755.0,286047002.3,N
1561561755.9,286047002.3,N
1561561775.8,286046999.9,N
1561561795.6,286047000.5,N
1561561815.4,286047001.0,N
1561561835.3,286047000.1,N
1561561855.1,286047002.3,N
1561561875.9,286046999.8,N
1561561895.7,286047002.5,N
1561561915.8,286047002.8,N
1561561935.6,286047002.3,N
1561561955.4,286047001.6,N
1561561975.3,286047001.7,N
1561561995.1,286047004.3,N
1561562015.2,286047001.6,N
1561562035.1,286047002.4,N
1561562055.7,286047002.5,N
1561562075.5,286047001.9,N
1561562095.4,286047002.0,N
1561562115.2,286047001.5,N
1561562135.0,286047001.7,N
1561562136.0,286047001.7,N
1561562155.8,286047004.0,N
1561562175.6,286047004.0,N
1561562195.5,286047001.4,N
1561562215.3,286047001.4,N
1561562235.1,286047004.2,Y
1561562255.9,286047000.3,P
1561562275.7,286047000.8,N
1561562295.6,286047000.5,N
1561562315.4,286047000.9,N
1561562335.2,286047000.1,N
1561562355.1,286046999.7,N
1561562356.0,286046999.7,N
1561562375.8,286047000.0,N
1561562395.7,286047000.4,N
1561562415.5,286047002.5,Y
1561562435.3,286047002.7,P
1561562455.2,286046999.8,N
1561562475.0,286047002.6,N
1561562475.9,286047002.6,N
1561562495.8,286047002.5,N
1561562515.6,286047002.0,N
1561562535.4,286046999.7,N
1561562555.3,286047002.6,N
1561562575.1,286047002.1,N
1561562595.8,286047001.9,N
1561562615.7,286047002.1,N
1561562635.5,286047002.1,N
1561562655.4,286047001.8,N
1561562675.2,286047001.6,N
1561562695.0,286047002.1,N
1561562695.9,286047002.1,N
1561562715.8,286047001.6,N
1561562735.6,286047002.7,Y
1561562755.5,286046998.1,P
1561562775.6,286047000.7,N
1561562795.5,286046998.2,N
1561562815.3,286047001.2,N
1561562835.2,286046998.6,N
1561562855.9,286047001.1,N
1561562875.7,286046998.4,N
1561562895.6,286047000.8,N
1561562915.4,286046998.1,N
1561562935.2,286046998.4,N
1561562955.1,286046998.1,N
1561562956.0,286046998.1,N
1561562975.8,286046998.1,N
1561562995.7,286046999.1,N
1561563015.5,286046998.6,N
1561563035.3,286046998.9,N
1561563055.2,286046998.5,N
1561563075.0,286046999.6,N
1561563075.9,286046999.6,N
1561563095.8,286046999.3,N
1561563115.6,286046998.7,N
1561563135.4,286046999.1,N
1561563155.3,286047001.1,N
1561563175.1,286046999.4,N
1561563195.8,286046998.1,N
1561563215.7,286046998.4,N
1561563235.5,286047001.2,N
1561563255.4,286047001.2,N
1561563275.2,286047000.7,N
1561563295.1,286047001.2,N
1561563296.0,286047001.2,N
1561563315.8,286047001.0,N
1561563335.6,286047000.8,N
1561563355.5,286047000.7,N
1561563375.3,286047001.1,N
1561563395.1,286047000.9,N
1561563415.9,286047000.9,N
1561563435.7,286046999.9,N
1561563455.6,286047000.3,N
1561563475.4,286047000.1,N
1561563495.2,286047000.6,N
1561563515.1,286047000.7,N
1561563516.0,286047000.7,N
1561563535.8,286047002.4,N
1561563555.7,286047002.8,N
1561563575.5,286047000.2,N
1561563595.3,286047002.4,N
1561563615.2,286047000.2,N
1561563635.9,286047000.5,N
1561563655.7,286047001.0,N
1561563675.6,286046998.5,N
1561563695.4,286047001.2,N
1561563715.3,286047001.2,N
1561563735.1,286047000.5,N
1561563736.0,286047000.5,N
1561563755.8,286046998.7,N
1561563775.7,286046999.4,N
1561563795.5,286046999.5,N
1561563815.4,286046996.7,Y
1561563835.2,286046997.6,P
1561563855.0,286046998.0,N
1561563855.9,286046998.0,N
1561563875.8,286046995.5,Y
1561563895.6,286046996.5,P
1561563915.5,286046999.0,N
1561563935.3,286046998.8,N
1561563955.1,286047000.7,N
1561563975.9,286047000.8,N
1561563995.7,286047001.1,N
1561564015.5,286046998.2,N
1561564035.4,286046998.4,N
1561564055.2,286046998.4,N
1561564075.1,286046998.1,N
1561564076.0,286046998.1,N
1561564095.8,286046999.3,N
1561564115.6,286046998.8,N
1561564135.5,286046999.6,N
1561564155.3,286046996.6,N
1561564175.1,286046997.2,N
1561564195.9,286046997.2,N
1561564215.7,286046997.8,N
1561564235.6,286046995.1,Y
1561564255.4,286046998.6,P
1561564275.2,286046999.4,P
1561564295.1,286046998.9,N
1561564296.0,286046998.9,Y
1561564315.8,286046996.9,P
1561564335.7,286046996.5,P
1561564355.5,286046999.4,N
1561564375.3,286046999.1,N
1561564395.2,286046999.0,N
1561564415.0,286046998.3,N
1561564415.9,286046998.3,N
1561564435.8,286046998.7,N
1561564455.6,286046998.2,N
1561564475.4,286047001.2,N
1561564495.3,286046999.3,N
1561564515.1,286046998.2,N
1561564535.9,286046999.4,N
1561564555.7,286046999.6,N
1561564575.5,286046996.6,Y
1561564595.4,286047000.8,P
1561564615.2,286047001.0,N
1561564635.1,286047000.3,N
1561564636.0,286047000.3,N
1561564655.8,286047000.0,N
1561564675.6,286046999.7,N
1561564695.5,286046999.8,N
1561564715.3,286047000.9,N
1561564735.1,286047000.3,N
1561564755.9,286047000.4,N
1561564775.7,286047002.7,Y
1561564795.6,286046999.9,P
